Regional Weather Roundup
Issued by NWS Newport/Morehead, NC

Current Version | Previous Version | Graphics & Text | Print | Product List | Glossary Off
Versions: 1 2 3 4 5 6 7 8 9 10 11 12 13 14 15 16 17 18 19 20 21 22 23 24 25 26 27 28 29 30 31 32 33 34 35 36 37 38 39 40 41 42 43 44 45 46 47 48 49 50
000 ASUS42 KMHX 252014 RWRMHX WEATHER ROUNDUP FOR EASTERN NORTH CAROLINA NATIONAL WEATHER SERVICE NEWPORT/MOREHEAD CITY NC 400 PM EDT THU MAY 25 2017 NOTE: "FAIR" INDICATES FEW OR NO CLOUDS BELOW 12,000 FEET WITH NO SIGNIFICANT WEATHER AND/OR OBSTRUCTIONS TO VISIBILITY NCZ015>017-031-032-045>047-102-103-252100- NORTH COAST CITY SKY/WX TMP DP RH WIND PRES REMARKS EDENTON MOSUNNY 81 58 46 W12G18 29.52S ELIZABETH CITY MOSUNNY 79 57 46 SW22G29 29.51S KITTY HAWK CLOUDY 80 56 43 SW5 29.51R MANTEO CLOUDY 79 60 53 SW26G32 29.53R $$ NCZ045>047-081-094-103-104-252100- CENTRAL COAST CITY SKY/WX TMP DP RH WIND PRES REMARKS FRISCO NOT AVBL $$ NCZ095-097-098-100-101-252100- SOUTHERN COAST CITY SKY/WX TMP DP RH WIND PRES REMARKS BEAUFORT SUNNY 75 59 57 SW26G40 29.61R CEDAR ISLAND NOT AVBL JACKSONVILLE CLOUDY 69 61 75 SW13G21 29.60R THUNDER PINEY ISLAND PTCLDY N/A N/A N/A SW26G37 29.59R WILMINGTON PTSUNNY 67 55 65 SW20G29 29.66R $$ NCZ011>013-027>030-043-044-078>080-089-090>093-098-252100- COASTAL PLAIN CITY SKY/WX TMP DP RH WIND PRES REMARKS AHOSKIE N/A 75 59 57 S3 29.50S CLINTON SUNNY 76 55 47 SW13G23 29.60R ELIZABETHTOWN MOSUNNY 74 56 53 SW15G24 29.63R GOLDSBORO MOSUNNY 78 52 39 SW24G30 29.54S GREENVILLE PTSUNNY 75 57 53 SW14 29.58R HAVELOCK PTSUNNY 75 57 53 SW20G41 29.60R KENANSVILLE MOSUNNY 77 54 44 SW14G21 29.59R KINSTON MOSUNNY 77 52 41 SW15G25 29.57R NEW BERN MOSUNNY 71 59 65 S16G24 29.59S RICHLANDS LGT RAIN 67 57 70 SW18G28 29.62R ROCKY MOUNT MOSUNNY 75 56 51 SW20G28 29.55R WASHINGTON PTSUNNY 76 55 48 SW14G23 29.55R WHITEVILLE CLOUDY 71 56 58 SW10G20 29.65S $$ AMZ130-135-150-152-154-156-158-170-250-252-270-ANZ085-086-088-633-658-670-252100- MARINE OBSERVATIONS STATION/POSITION TIME TEMP WIND PRES WAVE SWELL AIR SEA DIR/SP/G HT/PER HT/PER (UTC) (F) (DEG/KT/KT) (MB) (FT/S) (FT/S) CHESAPEAKE LIGHT NOT AVBL 64 E VA BEACH 1950 69 66 200/ 21/ 25 1000.2 6/ 7 3/ 8 DUCK 1942 78 62 230/ 16/ 24 998.8 2 E DUCK 2000 64 N/A 3/ 7 OREGON INLET 1942 75 73 190/ 30/ 34 1000.4 13E OREGON INLT 1948 66 N/A 8/ 8 3/10 HATTERAS CG 1942 76 74 220/ 19/ 27 1001.9 DIAMOND BUOY 1950 76 78 220/ 25/ 31 1002.2 9/ 9 5/ 9 CAPE LOOKOUT 2000 74 220/ 20/ 26 1002.2 BEAUFORT LAB 1942 75 73 220/ 18/ 25 1001.8 30 SE NEW RVR IN 1908 74 75 240/ 25/ 35 1002.9 30 SE NEW RVR IN 1943 75 N/A 11/ 8 2/11 27 SE WRIGHTSVLE 1908 73 75 200/ 23/ 31 1001.8 5 SE WRIGHTSVLE 1908 73 74 210/ 17/ 33 1003.1 225 S CAPE HAT 1950 72 76 220/ 25/ 33 1008.7 12/ 8 41 SE CHARLESTON 1950 72 76 250/ 23/ 29 1006.8 8/ 7 2/13 $$

USA.gov is the U.S. government's official web portal to all federal, state and local government web resources and services.